SCP
0 0 0 0 0 0 -0 0 0 0 0 0 0 0 0 0 0 0 0 0 0 0 0 0 0 0 0 0 0 0 0 0 0 0 0 0 0 0 0 0 0 0 0 0
0 0 0 0 0 0 -0 0 0 0 0 0 0 0 0 0 0 0 0 0 0 0 0 0 0 0 0 0 0 0 0 0 0 0 0 0 0 0 0 0 0 0 0 0
0 0 0 0 0 0 0 0 0 0 0 0 0 0 0 0 0 0 0 0 0 0 0 0 0 0 0 0 0 0 0 0 0 0 0 0 0 0 0 0 0 0 0 0
0 0 0 0 0 0 0 0 0 0 0 0 0 0 0 0 0 0 0 0 0 0 0 0 0 0 0 0 0 0 0 0 0 0 0 0 0 0 0 0 0 0 0 0
0 0 0 0 0 0 0 0 0 0 0 0 0 0 0 0 0 0 0 0 0 0 0 0 0 0 0 0 0 0 0 0 0 0 0 0 0 0 0 0 0 0 0 0
0 0 0 0 0 0 0 0 0 0 0 0 0 0 0 0 0 0 0 0 0 0 0 0 0 0 0 0 0 0 0 0 0 0 0 0 0 0 0 0 0 0 0 0
0 0 0 0 0 0 0 0 0 0 0 0 0 0 0 0 0 0 0 0 0 0 0 0 0 0 0 0 -0 -0 0 0 0 0 0 0 0 0 0 0 0 0 0 0
0 0 0 0 0 0 0 0 0 0 0 0 0 0 0 0 0 0 0 0 0 -0 0 0 0 0 0 0 0 0 0 0 0 0 0 0 0 0 0 0 0 0 0 0
0 0 0 0 0 0 0 0 0 0 0 0 0 0 0 0 0 0 0 0 0 0 0 0 0 0 0 0 0 0 0 -0 0 0 0 0 0 0 0 0 0 0 0 0
0 -0 0 0 0 0 0 0 0 0 0 0 0 0 0 0 0 0 0 0 0 0 0 0 0 0 0 0 0 0 0 0 0 0 0 0 0 0 0 0 0 0 0 0
0 0 0 0 0 -0 0 0 0 0 0 0 0 0 0 0 0 0 0 0 0 0 0 0 0 0 0 0 0 0 0 0 0 0 0 0 0 0 0 0 0 0 0 0
0 0 0 0 0 0 0 0 0 0 0 0 -0 0 0 0 0 0 0 0 0 0 0 0 0 0 0 0 0 0 0 0 -0 0 0 0 0 0 0 0 0 0 0 0
0 -0 -0 -0 0 0 0 0 0 0 -0 0 0 0 0 0 0 0 0 0 0 0 0 0 0 0 0 0 0 0 0 0 0 -0 0 0 0 0 0 0 0 0 0 0
0 -0 0 0 0 0 -0 0 0 0 0 0 0 0 0 0 0 0 0 0 0 0 0 0 0 0 0 0 0 0 0 0 0 0 0 0 0 0 0 0 0 0 0 0
0 -0 0 0 0 0 -0 0 0 0 0 0 0 0 0 0 0 0 0 0 0 0 0 0 0 0 0 0 0 0 0 0 0 0 0 0 0 0 0 0 0 0 0 0
-0 -0 0 0 0 -0 -0 0 0 0 0 0 0 0 0 0 0 0 0 0 0 0 0 0 0 0 0 0 0 0 0 0 0 0 0 0 0 0 0 0 0 0 0 0
-0 0 0 0 0 -0 -0 0 0 0 0 0 0 0 0 0 0 0 0 0 0 0 0 0 0 0 0 0 0 0 0 0 0 0 0 0 0 0 0 0 0 0 0 0
0 0 0 0 0 0 0 0 0 -0 0 0 0 0 0 0 0 0 0 0 0 0 0 0 0 0 0 0 0 0 0 0 0 0 0 0 0 0 0 0 0 0 0 0
0 0 0 0 0 0 0 0 -0 0 0 0 0 0 0 0 0 0 0 0 0 0 0 0 0 0 0 0 0 0 0 0 0 0 0 0 0 0 0 0 0 0 0 0
0 0 0 0 0 0 0 0 0 0 0 0 0 0 0 0 0 0 0 0 0 0 0 0 0 0 0 0 0 0 0 0 0 0 0 0 0 0 0 0 0 0 0 0
0 0 0 0 0 0 0 0 0 0 0 0 0 0 0 0 0 0 0 0 0 0 0 0 0 0 0 0 0 0 0 0 0 0 0 -0 -0 0 0 0 0 0 0 0
0 0 0 0 0 0 0 0 0 0 0 0 0 0 0 0 0 0 0 0 0 0 0 0 0 0 0 0 0 0 0 0 0 0 0 0 0 0 0 0 0 0 0 0
0 0 0 0 0 0 0 0 0 0 0 0 0 0 0 0 0 0 0 0 0 0 0 0 0 0 0 0 0 0 0 0 0 0 0 0 0 0 0 0 0 0 0 0
0 0 0 0 0 0 0 0 0 0 0 0 0 0 0 0 0 0 0 0 0 0 0 0 0 0 0 0 0 0 0 0 0 0 0 0 0 0 0 0 0 0 0 0
0 0 0 0 0 0 0 0 0 0 0 0 0 0 0 0 0 0 0 0 0 0 0 0 0 0 0 0 0 0 0 0 0 0 0 0 0 0 0 0 0 0 0 0
0 0 0 0 0 0 0 0 0 0 0 0 0 0 0 0 0 0 0 0 0 0 0 0 0 0 0 0 0 0 0 0 0 0 0 0 0 0 0 0 0 0 0 0
0 0 0 0 0 0 0 0 0 0 0 0 0 0 0 0 0 0 0 0 0 0 0 0 0 0 0 0 0 0 0 0 -0 -0 0 0 0 0 0 0 0 0 0 0
Wind_Speed_500mb
48 47 51 53 50 63 54 27 8 13 31 1 3 6 12 9 11 21 10 7 12 13 13 10 13 17 18 18 14 13 21 18 19 24 8 14 20 21 17 13 11 4 8 14
44 42 43 48 48 45 56 37 17 10 14 4 5 11 9 6 4 9 7 10 14 11 14 8 15 16 21 46 15 12 13 9 14 12 11 2 10 11 11 10 8 16 12 13
39 39 38 40 46 36 37 13 8 6 17 5 3 9 10 8 12 11 10 10 9 7 10 12 13 8 10 14 14 43 35 8 21 33 25 12 11 15 13 15 10 12 15 17
31 34 34 38 42 34 22 8 5 4 7 4 7 5 8 6 8 7 8 8 14 18 15 12 15 18 33 11 11 7 16 19 13 38 24 16 16 17 21 17 14 16 16 21
35 36 34 35 35 36 11 8 8 14 14 23 8 5 5 5 7 6 12 13 19 11 18 21 19 18 14 12 3 7 5 14 18 37 33 30 25 24 18 16 8 9 8 17
38 37 31 31 29 30 11 8 11 9 13 8 5 6 3 13 21 21 35 16 11 22 25 23 40 29 18 10 14 4 3 7 8 28 17 13 13 38 22 13 12 19 19 35
38 37 33 30 28 23 21 13 12 8 10 8 7 16 20 28 20 17 32 32 9 14 56 57 29 26 24 12 6 11 7 1 5 13 11 9 25 14 31 31 13 14 9 12
41 44 34 25 28 26 24 17 8 9 10 18 22 17 11 29 33 18 26 35 37 49 27 5 4 3 5 8 16 14 6 7 7 10 13 8 3 8 12 15 14 3 11 8
40 41 36 31 32 27 28 23 25 21 12 12 24 6 19 13 8 11 13 36 37 14 2 4 13 12 11 8 6 7 3 3 5 3 13 15 9 8 7 2 3 4 4 11
38 36 29 29 27 26 30 29 21 14 18 36 40 14 9 13 7 7 11 23 17 25 5 6 6 8 6 13 28 18 9 8 5 9 5 7 4 17 5 12 11 13 4 11
33 33 34 31 26 20 30 30 22 29 21 56 64 59 41 33 21 6 18 20 5 6 5 3 3 5 3 6 4 25 13 3 4 7 6 1 30 10 10 4 21 46 45 47
34 31 31 27 24 24 29 31 20 27 29 38 41 64 58 56 48 34 18 11 13 4 2 4 5 2 3 3 6 8 12 13 7 2 5 10 28 8 18 21 49 68 68 58
27 27 25 24 21 23 24 26 27 25 31 63 63 63 16 26 35 41 20 13 8 6 23 7 5 4 4 3 2 7 11 2 10 9 7 13 35 30 41 54 57 56 60 55
25 21 20 18 21 22 27 27 24 15 13 11 19 21 29 15 28 34 55 46 27 36 39 12 6 1 3 4 4 4 4 6 11 10 6 9 22 26 29 48 54 54 48 48
18 17 15 14 12 16 22 29 30 24 17 9 30 60 6 8 20 21 28 43 47 26 9 7 5 0 3 3 6 8 9 3 6 11 22 21 22 30 25 45 51 46 36 37
13 9 11 13 13 17 21 8 10 27 27 11 9 21 9 3 10 29 23 23 23 15 10 7 9 6 2 6 6 9 37 11 11 5 38 46 46 48 39 50 53 47 43 39
9 11 13 14 13 18 15 7 5 20 17 7 11 10 8 6 11 13 20 21 15 10 8 5 11 12 6 4 6 36 31 36 42 45 61 51 52 42 40 42 49 40 35 32
9 11 14 17 17 20 13 9 14 24 9 8 6 9 15 2 5 4 13 12 13 10 3 8 3 8 11 8 16 25 31 53 59 61 61 55 41 35 35 32 31 25 31 28
8 11 16 12 4 4 6 12 3 17 12 8 5 5 7 10 3 4 9 7 2 2 5 5 7 7 10 7 19 33 29 29 38 44 45 38 38 35 33 29 25 25 27 25
8 8 7 4 3 5 6 3 3 10 9 9 6 9 7 8 9 5 4 2 5 6 5 6 7 5 14 27 31 31 33 32 14 30 39 33 36 31 30 29 25 24 23 23
10 10 7 7 7 4 4 4 5 5 5 10 13 12 6 6 3 3 5 4 1 7 4 7 6 4 8 24 24 22 25 28 35 34 30 28 26 29 30 30 29 27 27 26
15 10 9 8 4 3 2 4 6 7 5 7 6 7 12 8 5 2 5 3 4 7 5 8 5 2 19 18 20 22 24 27 29 28 27 28 27 26 26 27 26 24 23 21
7 10 8 8 5 11 6 9 7 7 10 8 16 7 9 8 10 7 8 10 4 4 7 6 4 6 16 20 20 27 31 34 34 36 34 27 24 22 22 20 20 21 22 26
8 9 9 4 4 5 2 4 6 15 18 35 19 9 9 11 8 5 8 5 5 8 4 6 3 13 12 21 23 27 31 33 33 32 29 29 27 27 22 16 19 18 18 14
9 6 8 7 12 8 21 23 18 19 25 19 8 3 9 8 9 7 8 10 10 10 7 4 8 8 7 13 17 21 21 20 20 21 21 21 22 21 18 15 14 14 13 12
10 9 7 20 6 14 40 52 53 39 22 11 9 6 7 10 5 10 9 5 5 3 3 9 9 11 12 11 11 12 12 12 13 12 15 16 18 20 21 15 18 13 10 14
10 10 15 16 10 14 14 21 45 36 12 6 5 10 5 5 7 6 7 5 3 10 10 11 9 10 10 8 7 8 10 11 12 13 9 8 16 18 5 12 17 17 15 15
Wind_Direction_500mb
314 320 325 328 333 332 339 344 322 337 146 119 193 194 203 222 243 226 249 186 190 193 191 235 219 217 217 187 139 165 207 189 216 213 230 191 184 181 163 182 220 213 175 252
311 314 321 325 333 342 341 325 284 238 206 212 268 303 289 274 262 230 221 226 206 195 201 223 206 219 234 237 167 198 186 208 216 306 324 255 195 173 131 114 95 188 182 257
312 317 319 326 329 335 335 307 323 308 206 276 358 341 269 266 258 253 215 222 266 261 261 228 252 236 270 190 214 258 185 160 186 225 228 174 192 179 174 150 146 174 211 232
320 321 325 325 329 336 334 268 258 330 306 315 335 268 293 281 275 318 281 279 217 210 221 225 223 244 269 281 8 77 157 193 201 227 197 180 205 180 169 177 187 173 237 197
306 310 313 318 325 336 323 297 334 332 291 298 293 193 272 295 326 272 257 210 255 284 228 207 228 204 209 217 55 46 2 241 194 232 217 202 222 231 181 195 164 247 287 246
304 303 305 309 313 326 318 326 306 299 282 311 305 236 348 311 323 263 244 275 340 291 253 288 275 254 277 196 147 285 279 188 125 234 193 158 240 224 215 198 189 189 196 231
290 292 290 300 296 302 308 293 307 280 275 255 256 314 312 294 301 289 278 295 257 250 309 309 273 264 267 188 87 177 234 95 160 244 87 174 243 188 206 210 199 195 242 215
288 285 285 283 286 283 283 287 263 271 274 278 283 270 295 304 298 261 270 272 266 300 301 251 238 258 252 181 101 350 236 135 249 165 170 220 106 13 127 159 223 214 257 222
285 279 279 281 285 269 271 283 285 243 280 239 260 344 296 286 292 311 266 309 315 332 278 194 167 198 181 138 40 31 294 184 169 231 146 191 199 303 15 303 216 23 277 254
288 275 272 273 265 266 264 274 272 245 266 269 279 251 271 294 342 274 302 340 318 14 355 210 161 216 173 159 176 196 331 329 60 294 117 272 346 325 326 150 217 13 359 231
288 276 275 278 263 260 262 268 273 250 259 273 274 266 265 269 281 262 326 331 315 333 343 296 259 123 193 99 170 185 193 44 284 281 10 111 358 13 163 187 98 81 77 90
275 281 276 263 268 265 254 255 281 239 257 262 267 277 270 261 247 270 279 283 298 285 303 292 280 30 51 163 146 52 174 178 161 111 275 290 346 359 85 130 91 91 83 77
290 270 271 263 269 262 261 266 270 266 279 288 274 272 284 265 248 242 227 250 230 338 341 269 271 286 119 101 60 117 11 237 108 142 300 331 15 68 81 80 81 79 74 66
271 288 275 273 272 264 262 268 278 243 270 275 288 308 293 271 267 242 226 230 266 310 298 237 245 231 102 197 170 109 239 356 139 77 198 96 73 72 81 90 84 75 65 55
264 282 275 271 278 264 274 278 273 249 227 291 288 307 289 231 231 214 209 227 242 265 272 246 220 238 36 269 120 38 333 206 152 193 204 131 148 111 116 99 89 81 71 66
266 270 278 281 303 284 308 296 264 215 210 275 291 314 306 333 241 215 204 244 258 252 282 284 308 26 62 51 66 354 339 333 284 203 109 103 109 114 103 94 91 85 78 78
270 274 288 299 294 288 274 278 113 167 185 258 299 298 292 346 164 185 214 215 227 223 264 277 24 355 41 55 43 331 14 87 97 102 113 88 93 89 95 88 84 77 75 63
279 288 299 301 294 295 297 285 227 188 248 264 276 275 314 221 227 203 171 180 206 228 281 108 118 20 30 48 343 23 62 94 99 101 101 100 99 93 77 74 63 54 46 36
306 301 310 313 351 4 329 21 130 222 241 285 256 283 288 336 238 174 167 166 149 34 65 20 88 14 49 334 323 24 51 96 105 97 95 95 81 63 50 43 33 23 16 7
350 341 337 356 359 341 302 293 209 193 226 233 247 267 269 336 1 11 69 145 163 64 301 45 76 57 41 16 44 47 60 79 120 88 55 55 56 49 42 38 31 20 1 353
20 357 324 335 324 303 257 264 212 200 256 217 247 248 269 328 4 267 212 193 95 92 265 93 82 68 350 21 53 46 49 57 63 65 61 49 41 32 22 16 11 357 343 340
347 331 326 326 315 300 312 256 270 207 251 233 243 282 239 282 288 240 344 88 41 94 170 87 90 30 358 20 41 54 53 56 59 53 48 37 30 21 11 6 5 9 10 2
355 353 332 346 359 41 24 358 338 325 320 336 309 308 331 321 5 44 29 34 54 123 42 69 73 15 26 29 43 51 51 50 52 51 48 41 35 22 15 21 15 7 0 357
12 0 354 11 354 6 298 278 257 290 290 312 311 310 24 356 19 65 50 305 47 97 70 81 101 41 50 62 65 70 58 56 57 53 46 42 39 33 33 32 20 17 15 24
30 360 7 359 322 348 308 311 303 352 340 356 321 354 34 6 33 14 47 42 21 31 45 72 50 26 67 67 60 62 58 62 63 60 52 43 34 26 25 28 22 19 29 35
28 28 328 321 334 1 7 14 2 5 345 357 7 14 40 49 37 52 0 51 59 67 40 13 13 42 77 78 70 60 50 44 39 36 27 26 30 28 31 30 27 17 30 29
21 318 326 330 295 271 308 343 357 2 18 29 8 44 4 308 53 45 16 38 33 51 60 54 67 85 91 90 61 37 7 359 1 1 354 1 356 347 355 42 33 35 35 27
Wind_Speed_850mb
48 47 51 53 50 63 54 27 8 13 31 1 3 6 12 9 11 21 10 7 12 13 13 10 13 17 18 18 14 13 21 18 19 24 8 14 20 21 17 13 11 4 8 14
44 42 43 48 48 45 56 37 17 10 14 4 5 11 9 6 4 9 7 10 14 11 14 8 15 16 21 46 15 12 13 9 14 12 11 2 10 11 11 10 8 16 12 13
39 39 38 40 46 36 37 13 8 6 17 5 3 9 10 8 12 11 10 10 9 7 10 12 13 8 10 14 14 43 35 8 21 33 25 12 11 15 13 15 10 12 15 17
31 34 34 38 42 34 22 8 5 4 7 4 7 5 8 6 8 7 8 8 14 18 15 12 15 18 33 11 11 7 16 19 13 38 24 16 16 17 21 17 14 16 16 21
35 36 34 35 35 36 11 8 8 14 14 23 8 5 5 5 7 6 12 13 19 11 18 21 19 18 14 12 3 7 5 14 18 37 33 30 25 24 18 16 8 9 8 17
38 37 31 31 29 30 11 8 11 9 13 8 5 6 3 13 21 21 35 16 11 22 25 23 40 29 18 10 14 4 3 7 8 28 17 13 13 38 22 13 12 19 19 35
38 37 33 30 28 23 21 13 12 8 10 8 7 16 20 28 20 17 32 32 9 14 56 57 29 26 24 12 6 11 7 1 5 13 11 9 25 14 31 31 13 14 9 12
41 44 34 25 28 26 24 17 8 9 10 18 22 17 11 29 33 18 26 35 37 49 27 5 4 3 5 8 16 14 6 7 7 10 13 8 3 8 12 15 14 3 11 8
40 41 36 31 32 27 28 23 25 21 12 12 24 6 19 13 8 11 13 36 37 14 2 4 13 12 11 8 6 7 3 3 5 3 13 15 9 8 7 2 3 4 4 11
38 36 29 29 27 26 30 29 21 14 18 36 40 14 9 13 7 7 11 23 17 25 5 6 6 8 6 13 28 18 9 8 5 9 5 7 4 17 5 12 11 13 4 11
33 33 34 31 26 20 30 30 22 29 21 56 64 59 41 33 21 6 18 20 5 6 5 3 3 5 3 6 4 25 13 3 4 7 6 1 30 10 10 4 21 46 45 47
34 31 31 27 24 24 29 31 20 27 29 38 41 64 58 56 48 34 18 11 13 4 2 4 5 2 3 3 6 8 12 13 7 2 5 10 28 8 18 21 49 68 68 58
27 27 25 24 21 23 24 26 27 25 31 63 63 63 16 26 35 41 20 13 8 6 23 7 5 4 4 3 2 7 11 2 10 9 7 13 35 30 41 54 57 56 60 55
25 21 20 18 21 22 27 27 24 15 13 11 19 21 29 15 28 34 55 46 27 36 39 12 6 1 3 4 4 4 4 6 11 10 6 9 22 26 29 48 54 54 48 48
18 17 15 14 12 16 22 29 30 24 17 9 30 60 6 8 20 21 28 43 47 26 9 7 5 0 3 3 6 8 9 3 6 11 22 21 22 30 25 45 51 46 36 37
13 9 11 13 13 17 21 8 10 27 27 11 9 21 9 3 10 29 23 23 23 15 10 7 9 6 2 6 6 9 37 11 11 5 38 46 46 48 39 50 53 47 43 39
9 11 13 14 13 18 15 7 5 20 17 7 11 10 8 6 11 13 20 21 15 10 8 5 11 12 6 4 6 36 31 36 42 45 61 51 52 42 40 42 49 40 35 32
9 11 14 17 17 20 13 9 14 24 9 8 6 9 15 2 5 4 13 12 13 10 3 8 3 8 11 8 16 25 31 53 59 61 61 55 41 35 35 32 31 25 31 28
8 11 16 12 4 4 6 12 3 17 12 8 5 5 7 10 3 4 9 7 2 2 5 5 7 7 10 7 19 33 29 29 38 44 45 38 38 35 33 29 25 25 27 25
8 8 7 4 3 5 6 3 3 10 9 9 6 9 7 8 9 5 4 2 5 6 5 6 7 5 14 27 31 31 33 32 14 30 39 33 36 31 30 29 25 24 23 23
10 10 7 7 7 4 4 4 5 5 5 10 13 12 6 6 3 3 5 4 1 7 4 7 6 4 8 24 24 22 25 28 35 34 30 28 26 29 30 30 29 27 27 26
15 10 9 8 4 3 2 4 6 7 5 7 6 7 12 8 5 2 5 3 4 7 5 8 5 2 19 18 20 22 24 27 29 28 27 28 27 26 26 27 26 24 23 21
7 10 8 8 5 11 6 9 7 7 10 8 16 7 9 8 10 7 8 10 4 4 7 6 4 6 16 20 20 27 31 34 34 36 34 27 24 22 22 20 20 21 22 26
8 9 9 4 4 5 2 4 6 15 18 35 19 9 9 11 8 5 8 5 5 8 4 6 3 13 12 21 23 27 31 33 33 32 29 29 27 27 22 16 19 18 18 14
9 6 8 7 12 8 21 23 18 19 25 19 8 3 9 8 9 7 8 10 10 10 7 4 8 8 7 13 17 21 21 20 20 21 21 21 22 21 18 15 14 14 13 12
10 9 7 20 6 14 40 52 53 39 22 11 9 6 7 10 5 10 9 5 5 3 3 9 9 11 12 11 11 12 12 12 13 12 15 16 18 20 21 15 18 13 10 14
10 10 15 16 10 14 14 21 45 36 12 6 5 10 5 5 7 6 7 5 3 10 10 11 9 10 10 8 7 8 10 11 12 13 9 8 16 18 5 12 17 17 15 15
Wind_Direction_850mb
314 320 325 328 333 332 339 344 322 337 146 119 193 194 203 222 243 226 249 186 190 193 191 235 219 217 217 187 139 165 207 189 216 213 230 191 184 181 163 182 220 213 175 252
311 314 321 325 333 342 341 325 284 238 206 212 268 303 289 274 262 230 221 226 206 195 201 223 206 219 234 237 167 198 186 208 216 306 324 255 195 173 131 114 95 188 182 257
312 317 319 326 329 335 335 307 323 308 206 276 358 341 269 266 258 253 215 222 266 261 261 228 252 236 270 190 214 258 185 160 186 225 228 174 192 179 174 150 146 174 211 232
320 321 325 325 329 336 334 268 258 330 306 315 335 268 293 281 275 318 281 279 217 210 221 225 223 244 269 281 8 77 157 193 201 227 197 180 205 180 169 177 187 173 237 197
306 310 313 318 325 336 323 297 334 332 291 298 293 193 272 295 326 272 257 210 255 284 228 207 228 204 209 217 55 46 2 241 194 232 217 202 222 231 181 195 164 247 287 246
304 303 305 309 313 326 318 326 306 299 282 311 305 236 348 311 323 263 244 275 340 291 253 288 275 254 277 196 147 285 279 188 125 234 193 158 240 224 215 198 189 189 196 231
290 292 290 300 296 302 308 293 307 280 275 255 256 314 312 294 301 289 278 295 257 250 309 309 273 264 267 188 87 177 234 95 160 244 87 174 243 188 206 210 199 195 242 215
288 285 285 283 286 283 283 287 263 271 274 278 283 270 295 304 298 261 270 272 266 300 301 251 238 258 252 181 101 350 236 135 249 165 170 220 106 13 127 159 223 214 257 222
285 279 279 281 285 269 271 283 285 243 280 239 260 344 296 286 292 311 266 309 315 332 278 194 167 198 181 138 40 31 294 184 169 231 146 191 199 303 15 303 216 23 277 254
288 275 272 273 265 266 264 274 272 245 266 269 279 251 271 294 342 274 302 340 318 14 355 210 161 216 173 159 176 196 331 329 60 294 117 272 346 325 326 150 217 13 359 231
288 276 275 278 263 260 262 268 273 250 259 273 274 266 265 269 281 262 326 331 315 333 343 296 259 123 193 99 170 185 193 44 284 281 10 111 358 13 163 187 98 81 77 90
275 281 276 263 268 265 254 255 281 239 257 262 267 277 270 261 247 270 279 283 298 285 303 292 280 30 51 163 146 52 174 178 161 111 275 290 346 359 85 130 91 91 83 77
290 270 271 263 269 262 261 266 270 266 279 288 274 272 284 265 248 242 227 250 230 338 341 269 271 286 119 101 60 117 11 237 108 142 300 331 15 68 81 80 81 79 74 66
271 288 275 273 272 264 262 268 278 243 270 275 288 308 293 271 267 242 226 230 266 310 298 237 245 231 102 197 170 109 239 356 139 77 198 96 73 72 81 90 84 75 65 55
264 282 275 271 278 264 274 278 273 249 227 291 288 307 289 231 231 214 209 227 242 265 272 246 220 238 36 269 120 38 333 206 152 193 204 131 148 111 116 99 89 81 71 66
266 270 278 281 303 284 308 296 264 215 210 275 291 314 306 333 241 215 204 244 258 252 282 284 308 26 62 51 66 354 339 333 284 203 109 103 109 114 103 94 91 85 78 78
270 274 288 299 294 288 274 278 113 167 185 258 299 298 292 346 164 185 214 215 227 223 264 277 24 355 41 55 43 331 14 87 97 102 113 88 93 89 95 88 84 77 75 63
279 288 299 301 294 295 297 285 227 188 248 264 276 275 314 221 227 203 171 180 206 228 281 108 118 20 30 48 343 23 62 94 99 101 101 100 99 93 77 74 63 54 46 36
306 301 310 313 351 4 329 21 130 222 241 285 256 283 288 336 238 174 167 166 149 34 65 20 88 14 49 334 323 24 51 96 105 97 95 95 81 63 50 43 33 23 16 7
350 341 337 356 359 341 302 293 209 193 226 233 247 267 269 336 1 11 69 145 163 64 301 45 76 57 41 16 44 47 60 79 120 88 55 55 56 49 42 38 31 20 1 353
20 357 324 335 324 303 257 264 212 200 256 217 247 248 269 328 4 267 212 193 95 92 265 93 82 68 350 21 53 46 49 57 63 65 61 49 41 32 22 16 11 357 343 340
347 331 326 326 315 300 312 256 270 207 251 233 243 282 239 282 288 240 344 88 41 94 170 87 90 30 358 20 41 54 53 56 59 53 48 37 30 21 11 6 5 9 10 2
355 353 332 346 359 41 24 358 338 325 320 336 309 308 331 321 5 44 29 34 54 123 42 69 73 15 26 29 43 51 51 50 52 51 48 41 35 22 15 21 15 7 0 357
12 0 354 11 354 6 298 278 257 290 290 312 311 310 24 356 19 65 50 305 47 97 70 81 101 41 50 62 65 70 58 56 57 53 46 42 39 33 33 32 20 17 15 24
30 360 7 359 322 348 308 311 303 352 340 356 321 354 34 6 33 14 47 42 21 31 45 72 50 26 67 67 60 62 58 62 63 60 52 43 34 26 25 28 22 19 29 35
28 28 328 321 334 1 7 14 2 5 345 357 7 14 40 49 37 52 0 51 59 67 40 13 13 42 77 78 70 60 50 44 39 36 27 26 30 28 31 30 27 17 30 29
21 318 326 330 295 271 308 343 357 2 18 29 8 44 4 308 53 45 16 38 33 51 60 54 67 85 91 90 61 37 7 359 1 1 354 1 356 347 355 42 33 35 35 27